Location: Unspecified
(0.0000°N, 0.0000°E)
Time: 08:07:52
(UTC+00:00)

NOSS 3-2 (C) - Visible Passes

Search period start: 09 June 2023 00:00
Search period end: 19 June 2023 00:00
Orbit: 733 x 1478 km, 63.4° (Epoch: 05 June)

Date Brightness Start Highest point End Pass type
(mag) Time Alt. Az. Time Alt. Az. Time Alt. Az.
09 Jun 6.9 02:07:08 10° ENE 02:07:31 10° ENE 02:07:54 10° ENE visible
09 Jun 4.4 03:49:38 10° NNW 03:58:33 80° ENE 04:07:34 10° SSE visible
10 Jun 5.1 03:05:14 10° N 03:13:42 49° ENE 03:22:17 10° SE visible
10 Jun 5.0 04:57:18 10° WNW 05:04:37 28° WSW 05:11:55 10° SSW visible
11 Jun 5.8 02:21:31 10° N 02:28:49 29° ENE 02:36:16 10° ESE visible
11 Jun 4.5 04:11:15 10° NW 04:19:44 47° WSW 04:28:14 10° S visible
12 Jun 6.4 01:39:00 10° NNE 01:43:55 16° ENE 01:48:54 10° E visible
12 Jun 4.2 03:25:56 10° NNW 03:34:52 78° WSW 03:43:51 10° SSE visible
13 Jun 5.5 02:41:13 10° NNW 02:58:56 10° SSE 02:45:22 32° N visible
13 Jun 5.9 04:46:40 11° SSW 04:46:40 11° SSW 04:47:01 10° SSW visible
14 Jun 6.2 01:57:04 10° N 01:59:06 18° N 01:59:06 18° N visible
14 Jun6.504:05:58S04:05:58S03:46:22NWvisible
15 Jun 6.7 01:13:42 10° NNE 01:13:47 10° NNE 01:13:47 10° NNE visible
